Regional Weather Roundup
Issued by NWS Goodland, KS

Home | Current Version | Previous Version | Text Only | Print | Product List | Glossary Off
Versions: 1 2 3 4 5 6 7 8 9 10 11 12 13 14 15 16 17 18 19 20 21 22 23 24 25 26 27 28 29 30 31 32 33 34 35 36 37 38 39 40 41 42 43 44 45 46 47 48 49 50

000
ASUS43 KGLD 290459
RWRGLD

GOODLAND FORECAST AREA HOURLY WEATHER ROUNDUP
NATIONAL WEATHER SERVICE GOODLAND KS
1100 PM MDT WED SEP 28 2016

...OFFICIAL OBSERVATIONS...

CITY           SKY/WX    TMP DP  RH WIND       PRES   REMARKS
GOODLAND KS    CLEAR     51  41  68 SE7       30.36R
HILL CITY KS   CLEAR     47  43  86 NE5       30.35R
IMPERIAL NEB   CLEAR     52  35  52 E8        30.36R
MCCOOK NEB     CLEAR     50  37  61 NE7       30.35R
AKRON CO       CLEAR     55  38  52 SE10      30.39R
BURLINGTON CO  CLEAR     54  41  61 SE9       30.38R
LIMON CO       CLEAR     55  40  56 E13       30.41R
$$

...UNOFFICIAL OBSERVATIONS...

CITY           SKY/WX    TMP DP  RH WIND       PRES   REMARKS
COLBY KS       CLEAR     54  43  66 SE6       30.37R HAZE
LENORA KS        N/A     52  32  46 MISG        N/A
NORTON KS      CLEAR     48  36  61 CALM      30.34R
SHARON SPRINGS   N/A     54  44  69 SE8         N/A
KIT CARSON CO    N/A     59  44  56 MISG        N/A
$$




USA.gov is the U.S. government's official web portal to all federal, state and local government web resources and services.